Hourly Weather Agatovo

Today, 7 March, Sunday

Time Temperature Precipitation Wind Pressure Humidity
00:00 -5°C° 0 mm 6 mps 749 mmHg 70%
01:00 -4°C° 0 mm 6 mps 748 mmHg 72%
02:00 -4°C° 0 mm 7 mps 747 mmHg 75%
03:00 -4°C° 0 mm 7 mps 746 mmHg 79%
04:00 -5°C° 0 mm 8 mps 745 mmHg 83%
05:00 -5°C° 0 mm 9 mps 744 mmHg 87%
06:00 -5°C° 0 mm 9 mps 744 mmHg 85%
07:00 -4°C° 0 mm 9 mps 743 mmHg 82%
08:00 -4°C° 0 mm 9 mps 743 mmHg 79%
09:00 -4°C° 0 mm 10 mps 743 mmHg 79%
10:00 -4°C° 0 mm 10 mps 742 mmHg 78%
11:00 -3°C° 0 mm 10 mps 742 mmHg 77%
12:00 -3°C° 0 mm 10 mps 742 mmHg 80%
13:00 -3°C° 0 mm 10 mps 742 mmHg 83%
14:00 -3°C° 0 mm 10 mps 742 mmHg 86%
15:00 -3°C° 0.2 mm 10 mps 741 mmHg 86%
16:00 -3°C° 0.2 mm 9 mps 741 mmHg 86%
17:00 -2°C° 0.2 mm 8 mps 741 mmHg 86%
18:00 -3°C° 0.6 mm 7 mps 741 mmHg 88%
19:00 -3°C° 0.6 mm 6 mps 741 mmHg 91%
20:00 -4°C° 0.6 mm 5 mps 741 mmHg 93%
21:00 -5°C° 0.1 mm 5 mps 742 mmHg 89%
22:00 -5°C° 0.1 mm 5 mps 742 mmHg 86%
23:00 -6°C° 0.1 mm 5 mps 742 mmHg 83%

Tomorrow, 8 March, Monday

Time Temperature Precipitation Wind Pressure Humidity
00:00 -6°C° 0 mm 5 mps 742 mmHg 82%
01:00 -7°C° 0 mm 5 mps 743 mmHg 82%
02:00 -8°C° 0 mm 5 mps 743 mmHg 82%
03:00 -8°C° 0 mm 5 mps 743 mmHg 81%
04:00 -7°C° 0 mm 5 mps 742 mmHg 81%
05:00 -8°C° 0 mm 6 mps 742 mmHg 80%
06:00 -8°C° 0.1 mm 6 mps 743 mmHg 82%
07:00 -8°C° 0.1 mm 6 mps 743 mmHg 84%
08:00 -8°C° 0.1 mm 7 mps 744 mmHg 86%
09:00 -6°C° 0 mm 6 mps 744 mmHg 81%
10:00 -6°C° 0 mm 6 mps 744 mmHg 75%
11:00 -6°C° 0 mm 5 mps 745 mmHg 70%
12:00 -5°C° 0 mm 5 mps 745 mmHg 69%
13:00 -5°C° 0 mm 5 mps 745 mmHg 68%
14:00 -5°C° 0 mm 5 mps 746 mmHg 68%
15:00 -5°C° 0 mm 5 mps 746 mmHg 70%
16:00 -4°C° 0 mm 4 mps 746 mmHg 72%
17:00 -4°C° 0 mm 4 mps 746 mmHg 74%
18:00 -4°C° 0 mm 4 mps 746 mmHg 78%
19:00 -5°C° 0 mm 3 mps 747 mmHg 83%
20:00 -5°C° 0 mm 3 mps 747 mmHg 87%
21:00 -6°C° 0 mm 3 mps 748 mmHg 87%
22:00 -6°C° 0 mm 2 mps 748 mmHg 87%
23:00 -6°C° 0 mm 2 mps 748 mmHg 87%

Day after tomorrow, 9 March, Tuesday

Time Temperature Precipitation Wind Pressure Humidity
00:00 -7°C° 0 mm 2 mps 748 mmHg 87%
01:00 -7°C° 0 mm 2 mps 749 mmHg 88%
02:00 -7°C° 0 mm 2 mps 749 mmHg 88%
03:00 -8°C° 0 mm 2 mps 749 mmHg 88%
04:00 -8°C° 0 mm 2 mps 749 mmHg 89%
05:00 -8°C° 0 mm 2 mps 749 mmHg 89%
06:00 -8°C° 0 mm 2 mps 749 mmHg 88%
07:00 -7°C° 0 mm 1 mps 750 mmHg 87%
08:00 -6°C° 0 mm 1 mps 750 mmHg 86%
09:00 -6°C° 0 mm 1 mps 750 mmHg 81%
10:00 -4°C° 0 mm 1 mps 750 mmHg 76%
11:00 -3°C° 0 mm 1 mps 750 mmHg 71%
12:00 -3°C° 0 mm 1 mps 751 mmHg 67%
13:00 -3°C° 0 mm 0 mps 751 mmHg 64%
14:00 -3°C° 0 mm 0 mps 751 mmHg 61%
15:00 -3°C° 0 mm 0 mps 751 mmHg 62%
16:00 -3°C° 0 mm 0 mps 750 mmHg 63%
17:00 -3°C° 0 mm 0 mps 750 mmHg 64%
18:00 -4°C° 0 mm 0 mps 750 mmHg 67%
19:00 -3°C° 0 mm 1 mps 750 mmHg 70%
20:00 -4°C° 0 mm 1 mps 751 mmHg 73%
21:00 -4°C° 0 mm 1 mps 751 mmHg 74%
22:00 -6°C° 0 mm 1 mps 751 mmHg 74%
23:00 -6°C° 0 mm 1 mps 751 mmHg 74%

10 March, Wednesday

Time Temperature Precipitation Wind Pressure Humidity
00:00 -6°C° 0 mm 1 mps 751 mmHg 74%
01:00 -7°C° 0 mm 2 mps 751 mmHg 73%
02:00 -7°C° 0 mm 2 mps 751 mmHg 73%
03:00 -7°C° 0 mm 2 mps 751 mmHg 73%
04:00 -7°C° 0 mm 2 mps 751 mmHg 73%
05:00 -7°C° 0 mm 2 mps 750 mmHg 74%
06:00 -7°C° 0 mm 2 mps 751 mmHg 73%
07:00 -7°C° 0 mm 2 mps 751 mmHg 73%
08:00 -7°C° 0 mm 2 mps 751 mmHg 73%
09:00 -5°C° 0 mm 2 mps 751 mmHg 68%
10:00 -4°C° 0 mm 2 mps 751 mmHg 63%
11:00 -2°C° 0 mm 2 mps 751 mmHg 58%
12:00 -2°C° 0 mm 2 mps 751 mmHg 55%
13:00 -1°C° 0 mm 2 mps 751 mmHg 52%
14:00 -1°C° 0 mm 2 mps 751 mmHg 49%
15:00 -1°C° 0 mm 2 mps 751 mmHg 52%
16:00 +1°C° 0 mm 1 mps 750 mmHg 54%
17:00 +1°C° 0 mm 1 mps 750 mmHg 57%
18:00 0°C° 0 mm 1 mps 750 mmHg 58%
19:00 -3°C° 0 mm 2 mps 750 mmHg 60%
20:00 -4°C° 0 mm 2 mps 750 mmHg 62%
21:00 -4°C° 0 mm 2 mps 750 mmHg 62%
22:00 -4°C° 0 mm 2 mps 750 mmHg 63%
23:00 -5°C° 0 mm 3 mps 750 mmHg 63%

11 March, Thursday

Time Temperature Precipitation Wind Pressure Humidity
00:00 -5°C° 0 mm 3 mps 750 mmHg 65%
01:00 -5°C° 0 mm 3 mps 750 mmHg 66%
02:00 -6°C° 0 mm 3 mps 750 mmHg 68%
03:00 -6°C° 0 mm 3 mps 749 mmHg 70%
04:00 -6°C° 0 mm 3 mps 749 mmHg 72%
05:00 -7°C° 0 mm 4 mps 748 mmHg 74%
06:00 -5°C° 0 mm 4 mps 748 mmHg 73%
07:00 -5°C° 0 mm 4 mps 748 mmHg 72%
08:00 -5°C° 0 mm 4 mps 747 mmHg 72%
09:00 -4°C° 0 mm 5 mps 746 mmHg 67%
10:00 -3°C° 0 mm 6 mps 746 mmHg 62%
11:00 -1°C° 0 mm 7 mps 745 mmHg 56%
12:00 -1°C° 0 mm 7 mps 744 mmHg 58%
13:00 0°C° 0 mm 7 mps 743 mmHg 60%
14:00 0°C° 0 mm 8 mps 743 mmHg 62%
15:00 0°C° 0.4 mm 8 mps 742 mmHg 73%
16:00 -1°C° 0.4 mm 8 mps 741 mmHg 85%
17:00 -2°C° 0.4 mm 8 mps 740 mmHg 96%
18:00 -1°C° 0.9 mm 8 mps 739 mmHg 96%
19:00 -1°C° 0.9 mm 8 mps 738 mmHg 95%
20:00 0°C° 0.9 mm 7 mps 737 mmHg 95%
21:00 0°C° 0.6 mm 7 mps 737 mmHg 95%
22:00 +2°C° 0.6 mm 7 mps 736 mmHg 95%
23:00 +2°C° 0.6 mm 7 mps 736 mmHg 94%

12 March, Friday

Time Temperature Precipitation Wind Pressure Humidity
00:00 +2°C° 0.2 mm 7 mps 735 mmHg 94%
01:00 +2°C° 0.2 mm 7 mps 735 mmHg 93%
02:00 +2°C° 0.2 mm 6 mps 735 mmHg 92%
03:00 +2°C° 0.1 mm 6 mps 735 mmHg 92%
04:00 +1°C° 0.1 mm 6 mps 735 mmHg 91%
05:00 +1°C° 0.1 mm 6 mps 735 mmHg 90%
06:00 +1°C° 0 mm 6 mps 735 mmHg 91%
07:00 +1°C° 0 mm 6 mps 736 mmHg 91%
08:00 +1°C° 0 mm 6 mps 736 mmHg 92%
09:00 +2°C° 0 mm 6 mps 736 mmHg 87%
10:00 +3°C° 0 mm 7 mps 736 mmHg 82%
11:00 +4°C° 0 mm 7 mps 736 mmHg 78%
12:00 +4°C° 0.2 mm 8 mps 736 mmHg 78%
13:00 +4°C° 0.2 mm 8 mps 736 mmHg 77%
14:00 +3°C° 0.2 mm 9 mps 736 mmHg 77%
15:00 +3°C° 0.1 mm 7 mps 736 mmHg 76%
16:00 +3°C° 0.1 mm 6 mps 736 mmHg 75%
17:00 +3°C° 0.1 mm 5 mps 736 mmHg 74%
18:00 +2°C° 0 mm 5 mps 737 mmHg 77%
19:00 +1°C° 0 mm 5 mps 737 mmHg 79%
20:00 +1°C° 0 mm 5 mps 738 mmHg 82%
21:00 0°C° 0 mm 5 mps 738 mmHg 82%
22:00 0°C° 0 mm 5 mps 739 mmHg 83%
23:00 0°C° 0 mm 5 mps 739 mmHg 84%
Show more